KD9BEW Weather Reports


time (UTC)temp
C
wind
direction
speed
KPH
gust
KPH
rain 1hr
cm
rain 24hr
cm
rain mn
cm
humidity
%
barometer
mb
20260503213054 19 312 6.4 16.1 0.00 0.00 0.00 23 1002.6
20260503211554 19 284 4.8 17.7 0.00 0.00 0.00 23 1002.7
20260503210058 20 167 1.6 16.1 0.00 0.00 0.00 23 1002.6
20260503204606 19 22 6.4 16.1 0.00 0.00 0.00 22 1002.8
20260503203105 20 19 4.8 14.5 0.00 0.00 0.00 21 1002.9
20260503201556 20 263 4.8 16.1 0.00 0.00 0.00 22 1002.9
20260503200055 20 263 4.8 19.3 0.00 0.00 0.00 23 1003.0
20260503194614 20 299 4.8 19.3 0.00 0.00 0.00 23 1002.9
20260503193054 20 303 6.4 16.1 0.00 0.00 0.00 25 1003.0
20260503191600 19 263 6.4 19.3 0.00 0.00 0.00 29 1003.1
20260503190059 20 277 9.7 19.3 0.00 0.00 0.00 29 1003.2
20260503184555 20 331 3.2 22.5 0.00 0.00 0.00 29 1003.3
20260503183106 20 281 6.4 17.7 0.00 0.00 0.00 32 1003.5
20260503181554 20 293 8.0 17.7 0.00 0.00 0.00 33 1003.6
20260503180106 19 306 4.8 19.3 0.00 0.00 0.00 37 1003.5
20260503174553 19 257 4.8 19.3 0.00 0.00 0.00 40 1003.8
20260503173145 18 257 4.8 19.3 0.00 0.00 0.00 43 1003.8
20260503171554 18 277 4.8 20.9 0.00 0.00 0.00 41 1003.8
20260503130108 10 0 1.6 4.8 0.00 0.00 0.00 70 1004.9
20260503120104 10 0 0.0 1.6 0.00 0.00 0.00 72 1004.4
20260503100111 8 150 0.0 3.2 0.00 0.00 0.00 75 1004.4
20260503081558 11 0 1.6 4.8 0.00 0.00 0.00 67 1005.4
20260503071554 11 141 0.0 3.2 0.00 0.00 0.00 68 1006.4
20260503054555 12 176 0.0 4.8 0.00 0.00 0.00 58 1007.8
20260503053051 12 0 0.0 4.8 0.00 0.00 0.00 56 1007.8
20260503051555 12 183 0.0 3.2 0.00 0.00 0.00 56 1007.6
20260503050055 13 0 0.0 6.4 0.00 0.00 0.00 53 1007.6
20260503044555 13 171 1.6 6.4 0.00 0.00 0.00 51 1007.3
20260503043054 13 155 1.6 4.8 0.00 0.00 0.00 50 1007.4
20260503041553 13 152 1.6 4.8 0.00 0.00 0.00 50 1007.5
20260503040053 13 155 1.6 4.8 0.00 0.00 0.00 51 1007.5
20260503034552 14 200 1.6 11.3 0.00 0.00 0.00 49 1007.7
20260503033055 13 34 3.2 12.9 0.00 0.00 0.00 49 1008.0
20260503031608 13 167 3.2 14.5 0.00 0.00 0.00 46 1008.0
20260503030057 13 181 6.4 14.5 0.00 0.00 0.00 46 1008.1
20260503024554 13 151 3.2 11.3 0.00 0.00 0.00 45 1008.1
20260503023056 13 143 4.8 14.5 0.00 0.00 0.00 45 1008.3
20260503021555 13 0 1.6 4.8 0.00 0.00 0.00 45 1008.3
20260503020100 13 163 1.6 3.2 0.00 0.00 0.00 44 1008.4
20260503014559 13 142 0.0 6.4 0.00 0.00 0.00 43 1008.3
20260503013053 14 134 1.6 6.4 0.00 0.00 0.00 42 1008.5
20260503011606 14 156 0.0 6.4 0.00 0.00 0.00 41 1008.5
20260503010100 15 121 3.2 6.4 0.00 0.00 0.00 41 1008.6
20260503004601 15 209 1.6 9.7 0.00 0.00 0.00 40 1008.8
20260503003103 15 148 1.6 6.4 0.00 0.00 0.00 39 1008.9
20260503001555 15 164 3.2 12.9 0.00 0.00 0.00 39 1009.1
20260503000108 15 196 1.6 12.9 0.00 0.00 0.00 38 1009.3
20260502234554 15 294 3.2 11.3 0.00 0.00 0.00 39 1009.4
20260502233054 16 169 3.2 17.7 0.00 0.00 0.00 39 1009.6
20260502231617 15 0 6.4 17.7 0.00 0.00 0.00 37 1009.8
20260502230056 15 148 4.8 17.7 0.00 0.00 0.00 36 1009.8
20260502224559 16 133 3.2 9.7 0.00 0.00 0.00 35 1009.9
20260502223055 16 294 1.6 12.9 0.00 0.00 0.00 34 1010.0
20260502221554 16 149 1.6 11.3 0.00 0.00 0.00 31 1010.1
20260502220055 16 0 0.0 8.0 0.00 0.00 0.00 33 1010.4
20260502214556 16 142 3.2 14.5 0.00 0.00 0.00 33 1010.5